CW8081 Thessaloniki GR current weather conditions

sailwx.info

Last reported at 2016-Jan-02 01:34 UTC.
Time now 2016-Sep-25 22:39 UTC

Location: N 40°34' E 022°58'.
View on Google Maps.

See reports from other nearby stations

  
Tides and Currents Weather Stations Pressure Air Temp Water Temp Dewpoint Dewpoint Depression Visibility Wind Speed Wind Dir Waves Ship Positions
date/time (UTC)wind fromknots sea level pressurealtimeterstation pressurevisibilityair tempwater tempwave heightnotes
2016-Sep-25 21:46 026 16.7
2016-Sep-25 21:41 026 16.7
2016-Sep-25 21:16 006 3 gusting 6 16.7
2016-Sep-25 21:11 354 3 gusting 6 16.7
2016-Sep-25 21:06 011 1 gusting 5 16.7
2016-Sep-25 21:01 146 16.7
2016-Sep-25 20:46 148 16.7
2016-Sep-25 20:36 148 17.2
2016-Sep-25 20:16 148 17.2
2016-Sep-25 20:06 148 17.8
2016-Sep-25 20:01 148 17.8
2016-Sep-25 19:41 148 17.8
2016-Sep-25 19:36 148 17.8
2016-Sep-25 19:31 073 17.8
2016-Sep-25 19:16 071 0 gusting 4 18.3
2016-Sep-25 19:01 113 18.3
2016-Sep-25 18:46 120 0 gusting 2 18.9
2016-Sep-25 18:41 128 18.9
2016-Sep-25 18:31 128 18.9
2016-Sep-25 18:16 129 18.9
2016-Sep-25 18:11 129 19.4
2016-Sep-25 18:06 129 19.4
2016-Sep-25 17:46 130 19.4
2016-Sep-25 17:41 130 19.4
2016-Sep-25 17:31 130 20.0
2016-Sep-25 17:06 130 20.0
2016-Sep-25 17:01 130 0 gusting 1 20.0
2016-Sep-25 16:41 160 0 gusting 4 20.6
2016-Sep-25 16:31 179 0 gusting 5 20.6
2016-Sep-25 16:16 175 3 gusting 6 20.6
2016-Sep-25 16:11 173 2 gusting 6 21.1
2016-Sep-25 16:06 182 4 gusting 6 21.1
2016-Sep-25 16:01 174 5 gusting 10 21.1
2016-Sep-25 15:36 196 5 gusting 10 22.8
2016-Sep-25 15:16 203 4 gusting 6 23.3
2016-Sep-25 15:11 198 5 gusting 6 23.3
2016-Sep-25 14:41 239 5 gusting 7 23.3
2016-Sep-25 14:36 214 5 gusting 10 23.3
2016-Sep-25 14:31 209 5 gusting 10 23.3
2016-Sep-25 14:16 209 5 gusting 10 23.9
2016-Sep-25 14:06 216 5 gusting 10 23.9
2016-Sep-25 14:01 240 5 gusting 8 23.9
2016-Sep-25 13:41 209 5 gusting 8 23.9
2016-Sep-25 13:36 235 5 gusting 8 23.3
2016-Sep-25 13:31 239 6 gusting 10 23.3
2016-Sep-25 13:16 213 6 gusting 8 23.9
2016-Sep-25 13:11 235 6 gusting 8 23.9
2016-Sep-25 13:06 207 4 gusting 10 23.3
2016-Sep-25 13:01 219 5 gusting 11 23.3
2016-Sep-25 12:46 213 6 gusting 8 23.3
2016-Sep-25 12:41 219 6 gusting 8 23.9
2016-Sep-25 12:31 220 6 gusting 10 23.9
2016-Sep-25 12:16 250 6 gusting 10 23.9
2016-Sep-25 12:11 231 6 gusting 8 23.9
2016-Sep-25 12:06 246 5 gusting 8 23.3
2016-Sep-25 11:46 242 6 gusting 10 23.3
2016-Sep-25 11:41 271 6 gusting 12 23.3
2016-Sep-25 11:31 299 2 gusting 10 23.3
2016-Sep-25 11:16 275 2 gusting 8 23.3
2016-Sep-25 11:06 268 4 gusting 7 23.3
2016-Sep-25 11:01 259 5 gusting 10 23.3
2016-Sep-25 10:36 305 5 gusting 10 22.8
2016-Sep-25 10:31 301 5 gusting 10 22.8
2016-Sep-25 10:11 286 4 gusting 10 22.2
2016-Sep-25 09:46 321 2 gusting 7 22.2
2016-Sep-25 09:41 277 6 gusting 10 22.2
2016-Sep-25 09:36 291 5 gusting 10 22.2
2016-Sep-25 09:31 319 4 gusting 10 22.2
2016-Sep-25 09:16 290 1 gusting 10 22.2
2016-Sep-25 09:11 270 5 gusting 10 21.7
2016-Sep-25 09:06 329 2 gusting 8 21.7
2016-Sep-25 09:01 329 3 gusting 8 21.7
2016-Sep-25 08:36 329 4 gusting 8 21.1
2016-Sep-25 08:16 005 1 gusting 5 20.6
2016-Sep-25 08:11 001 1 gusting 4 20.0
2016-Sep-25 08:01 336 19.4
2016-Sep-25 07:46 324 1 gusting 4 18.9
2016-Sep-25 07:41 333 2 gusting 5 18.9
2016-Sep-25 07:36 331 0 gusting 6 18.9
2016-Sep-25 07:11 275 0 gusting 2 18.3
2016-Sep-25 07:06 290 1 gusting 4 17.8
2016-Sep-25 07:01 304 17.8
2016-Sep-25 06:41 225 16.7
2016-Sep-25 06:31 223 16.1
2016-Sep-25 06:16 223 16.1
2016-Sep-25 06:11 223 16.1
2016-Sep-25 06:01 223 15.6
2016-Sep-25 05:41 223 15.0
2016-Sep-25 05:36 223 15.0
2016-Sep-25 05:31 223 15.0
2016-Sep-25 05:16 223 15.0
2016-Sep-25 05:11 223 14.4
2016-Sep-25 05:06 223 14.4
2016-Sep-25 05:01 223 14.4
2016-Sep-25 04:46 223 15.0
2016-Sep-25 04:41 223 15.0
2016-Sep-25 04:36 223 15.0
2016-Sep-25 04:31 223 15.0
2016-Sep-25 04:16 223 15.0
2016-Sep-25 04:11 223 15.0
2016-Sep-25 04:06 223 15.0
2016-Sep-25 04:01 223 15.0
2016-Sep-25 03:46 223 15.6
2016-Sep-25 03:41 223 15.6
2016-Sep-25 03:31 223 15.6
2016-Sep-25 03:06 223 15.6
2016-Sep-25 03:01 223 15.6
2016-Sep-25 02:36 223 15.6
2016-Sep-25 02:31 223 15.6
2016-Sep-25 02:16 223 16.1
2016-Sep-25 01:46 223 16.7
2016-Sep-25 01:41 223 16.7
2016-Sep-25 01:36 223 16.7
2016-Sep-25 01:31 223 16.7
2016-Sep-25 01:11 223 16.1
2016-Sep-25 00:46 104 16.1
2016-Sep-25 00:41 105 16.1
2016-Sep-25 00:31 104 16.1
2016-Sep-25 00:16 105 16.1
2016-Sep-25 00:11 104 16.1
2016-Sep-25 00:06 105 15.6
2016-Sep-25 00:01 105 15.6
2016-Sep-24 23:46 105 15.6
2016-Sep-24 23:41 105 15.6
2016-Sep-24 23:36 105 15.6
2016-Sep-24 23:31 105 15.6
2016-Sep-24 23:16 105 15.0
2016-Sep-24 23:11 105 15.0
2016-Sep-24 23:06 105 15.0
2016-Sep-24 23:01 105 15.0
2016-Sep-24 22:46 105 15.0
2016-Sep-24 22:41 105 15.0
2016-Sep-24 22:36 105 15.0
2016-Sep-24 22:16 105 15.6
2016-Sep-24 22:11 105 15.6
2016-Sep-24 22:06 105 15.6
2016-Sep-24 22:01 105 15.6
2016-Sep-24 21:46 105 16.1
2016-Sep-24 21:36 105 16.1
2016-Sep-24 21:31 105 16.1
2016-Sep-24 21:16 105 16.1
2016-Sep-24 21:11 105 16.1
2016-Sep-24 21:06 105 16.1
2016-Sep-24 21:01 105 16.1
2016-Sep-24 20:46 105 16.7
2016-Sep-24 20:41 105 16.7
2016-Sep-24 20:36 105 16.7
2016-Sep-24 20:31 105 16.7
2016-Sep-24 20:16 105 17.2
2016-Sep-24 20:11 105 17.2
2016-Sep-24 20:06 105 17.2
2016-Sep-24 20:01 105 17.2
2016-Sep-24 19:46 074 17.8
2016-Sep-24 19:41 074 17.8
2016-Sep-24 19:36 074 17.8
2016-Sep-24 19:31 074 17.8
2016-Sep-24 19:16 076 17.8
2016-Sep-24 19:11 077 18.3
2016-Sep-24 19:06 077 0 gusting 1 18.3
2016-Sep-24 19:01 078 0 gusting 4 18.3
2016-Sep-24 18:46 068 18.3
2016-Sep-24 18:41 085 18.3
2016-Sep-24 18:31 087 0 gusting 2 18.3
2016-Sep-24 18:16 089 18.3
2016-Sep-24 18:11 105 18.3
2016-Sep-24 18:06 111 18.9
2016-Sep-24 17:46 162 18.9
2016-Sep-24 17:41 162 18.9
2016-Sep-24 17:36 162 19.4
2016-Sep-24 17:31 162 19.4
2016-Sep-24 17:16 163 19.4
2016-Sep-24 17:11 165 19.4
2016-Sep-24 17:01 165 20.0
2016-Sep-24 16:46 165 1 gusting 5 20.0
2016-Sep-24 16:36 163 0 gusting 5 20.6
2016-Sep-24 16:31 171 2 gusting 6 20.6
2016-Sep-24 16:16 170 3 gusting 8 20.6
2016-Sep-24 16:11 163 4 gusting 6 20.6
2016-Sep-24 16:01 191 4 gusting 8 21.1
2016-Sep-24 15:46 182 3 gusting 7 21.7
2016-Sep-24 15:41 193 4 gusting 8 21.7
2016-Sep-24 15:31 193 5 gusting 10 22.2
2016-Sep-24 15:11 172 4 gusting 6 22.8
2016-Sep-24 15:06 192 2 gusting 5 22.8
2016-Sep-24 15:01 197 4 gusting 7 22.8
2016-Sep-24 14:46 201 3 gusting 6 22.8
2016-Sep-24 14:41 220 5 gusting 6 22.8
2016-Sep-24 14:36 212 5 gusting 8 22.8
2016-Sep-24 14:31 215 5 gusting 7 22.8
2016-Sep-24 14:16 202 4 gusting 6 22.8
2016-Sep-24 14:11 261 3 gusting 6 22.8
2016-Sep-24 13:46 271 1 gusting 6 23.3
2016-Sep-24 13:41 249 1 gusting 6 22.8
2016-Sep-24 13:36 241 4 gusting 6 23.3
2016-Sep-24 13:31 223 5 gusting 7 23.3
2016-Sep-24 13:11 236 5 gusting 8 22.8
2016-Sep-24 13:06 193 5 gusting 6 22.8
2016-Sep-24 12:41 221 4 gusting 7 22.8
2016-Sep-24 12:36 221 6 gusting 7 22.8
2016-Sep-24 12:31 223 3 gusting 8 22.8
2016-Sep-24 12:16 245 5 gusting 7 23.3
2016-Sep-24 12:06 210 3 gusting 6 23.3
2016-Sep-24 11:36 218 4 gusting 7 22.2
2016-Sep-24 11:31 262 4 gusting 7 21.7
2016-Sep-24 11:06 284 6 gusting 8 22.2
2016-Sep-24 10:41 225 5 gusting 8 22.2
2016-Sep-24 10:36 288 1 gusting 6 21.7
2016-Sep-24 10:16 275 4 gusting 8 21.7
2016-Sep-24 10:06 245 5 gusting 7 21.7
2016-Sep-24 10:01 231 3 gusting 7 21.7
2016-Sep-24 09:46 239 2 gusting 8 21.7
2016-Sep-24 09:41 277 2 gusting 6 21.1
2016-Sep-24 09:36 263 4 gusting 6 21.1
2016-Sep-24 09:16 263 6 gusting 7 20.6
2016-Sep-24 09:11 260 3 gusting 10 20.6
2016-Sep-24 09:06 246 6 gusting 8 20.6
2016-Sep-24 09:01 258 2 gusting 7 20.6
2016-Sep-24 08:41 239 4 gusting 6 20.6
2016-Sep-24 08:31 224 4 gusting 7 20.0
2016-Sep-24 08:11 242 4 gusting 6 19.4
2016-Sep-24 08:01 232 2 gusting 6 19.4
2016-Sep-24 07:46 199 2 gusting 6 18.9
2016-Sep-24 07:36 207 3 gusting 5 18.3
2016-Sep-24 07:31 247 2 gusting 6 18.3
2016-Sep-24 07:16 247 1 gusting 6 18.3
2016-Sep-24 07:11 241 17.8
2016-Sep-24 07:06 260 1 gusting 5 17.8
2016-Sep-24 06:41 203 2 gusting 4 17.2
2016-Sep-24 06:36 201 0 gusting 4 16.7
2016-Sep-24 06:31 203 2 gusting 5 16.7
2016-Sep-24 06:11 290 16.1
2016-Sep-24 06:06 290 16.1
2016-Sep-24 06:01 290 15.6
2016-Sep-24 05:46 292 15.0
2016-Sep-24 05:36 292 15.0
2016-Sep-24 05:31 292 14.4
2016-Sep-24 05:16 292 13.9
2016-Sep-24 05:11 292 13.9
2016-Sep-24 05:06 292 13.9
2016-Sep-24 04:46 292 13.9
2016-Sep-24 04:41 292 13.9
2016-Sep-24 04:31 291 13.9
2016-Sep-24 04:16 254 13.9
2016-Sep-24 04:01 254 13.9
2016-Sep-24 03:46 254 13.9
2016-Sep-24 03:41 254 14.4
2016-Sep-24 03:36 254 14.4
2016-Sep-24 03:16 254 14.4
2016-Sep-24 03:06 254 14.4
2016-Sep-24 02:46 254 14.4
2016-Sep-24 02:36 254 14.4
2016-Sep-24 02:31 254 13.9
2016-Sep-24 02:16 136 13.9
2016-Sep-24 02:11 136 13.9
2016-Sep-24 01:41 136 13.9
2016-Sep-24 01:36 136 13.9
2016-Sep-24 01:31 136 13.9
2016-Sep-24 01:16 136 13.9
2016-Sep-24 01:11 136 13.9
2016-Sep-24 01:06 136 13.9
2016-Sep-24 01:01 136 13.9
2016-Sep-24 00:36 136 13.9
2016-Sep-24 00:31 136 13.9
2016-Sep-24 00:16 136 13.9
2016-Sep-24 00:11 136 13.9
2016-Sep-24 00:06 136 13.9
2016-Sep-24 00:01 136 13.9
2016-Sep-23 23:46 136 13.9
2016-Sep-23 23:41 136 13.9
2016-Sep-23 23:31 136 14.4
2016-Sep-23 23:16 136 14.4
2016-Sep-23 23:11 136 14.4
2016-Sep-23 23:01 136 14.4
2016-Sep-23 22:46 136 14.4
2016-Sep-23 22:36 136 14.4
2016-Sep-23 22:31 136 14.4
2016-Sep-23 22:11 136 15.0
2016-Sep-23 22:06 136 15.0
2016-Sep-23 22:01 136 15.0